Tracking 30743 objects as of 20-Jun-2025
HD Live streaming from Space Station
objects crossing your sky now

STARLINK-31005

Track STARLINK-31005 now!
10-day predictions
STARLINK-31005 is classified as:


NORAD ID: 58486
Int'l Code: 2023-186P
Perigee: 565.5 km
Apogee: 567.0 km
Inclination: 43.0 °
Period: 95.8 minutes
Semi major axis: 6937 km
RCS: Unknown
Launch date: December 3, 2023
Source: United States (US)
Launch site: AIR FORCE EASTERN TEST RANGE (AFETR)
Your satellite tracking list
Your tracking list is empty




NASA's NSSDC Master Catalog

Two Line Element Set (TLE):
1 58486U 23186P   25171.05106403  .00001027  00000-0  91056-4 0  9991
2 58486  43.0050  54.5741 0001088 268.6455  91.4262 15.02535982 86338
Source of the keplerian elements: AFSPC